Location: Göttingen
(51.5413°N, 9.9158°E)
Time: 01:40:18
(UTC+02:00)

Envisat - Pass Details

Date: 26 January 2022
Orbit: 764 x 765 km, 98.2° (Epoch: 22 May)

Event Time Altitude Azimuth Distance (km) Brightness Sun altitude
Rises 03:36:56 0° 31° (NNE) 3,242 6.9 -41.3°
Reaches altitude 10° 03:41:05 10° 64° (ENE) 2,309 6.1 -40.7°
Maximum altitude 03:42:45 12° 83° (E) 2,202 6.0 -40.5°
Drops below altitude 10° 03:44:26 10° 103° (ESE) 2,304 5.9 -40.3°
Sets 03:48:31 0° 136° (SE) 3,223 6.5 -39.7°
